Location: Unspecified
(0.0000°N, 0.0000°E)
Time: 03:19:06
(UTC+00:00)

S-56A Canister/Altair - Visible Passes

Search period start: 30 April 2017 00:00
Search period end: 10 May 2017 00:00
Orbit: 637 x 2497 km, 38.9° (Epoch: 28 April)

Date Brightness Start Highest point End Pass type
(mag) Time Alt. Az. Time Alt. Az. Time Alt. Az.
30 Apr 11.6 01:33:49 10° N 01:42:18 17° NNE 01:50:50 10° ENE visible
30 Apr 10.5 03:36:27 10° NNW 03:50:57 51° NE 04:03:19 10° ESE visible
30 Apr 10.4 18:33:28 10° WNW 18:37:32 19° NNW 18:42:39 10° NNE visible
01 May 11.7 01:01:43 10° N 01:08:41 15° NNE 01:15:51 10° ENE visible
01 May 10.6 03:03:26 10° NNW 03:17:32 46° NE 03:30:11 10° ESE visible
01 May 9.8 05:09:35 10° WNW 05:24:27 68° SW 05:35:57 10° SE visible
02 May 11.7 00:30:10 10° N 00:35:04 12° NNE 00:40:09 10° NE visible
02 May 10.8 02:30:32 10° NNW 02:44:04 41° NE 02:56:50 10° ESE visible
02 May 9.8 04:36:02 10° NW 04:51:14 76° SW 05:03:26 10° SE visible
03 May 10.9 01:57:45 10° NNW 02:10:36 36° NE 02:23:18 10° E visible
03 May 9.8 04:02:37 10° NW 04:17:56 85° SW 04:30:48 10° SE visible
04 May 11.0 01:25:08 10° NNW 01:37:09 32° NE 01:49:31 10° E visible
04 May 9.8 03:29:20 10° NW 03:44:34 86° NE 03:58:02 10° SE visible
05 May 11.1 00:52:39 10° NNW 01:04:35 27° NE 01:15:29 10° E visible
05 May 9.9 03:02:23 32° NW 03:11:10 78° NE 03:25:06 10° SE visible
05 May 10.2 05:04:32 10° WNW 05:17:52 38° SW 05:29:01 10° SSE visible
06 May 11.5 00:37:25 17° ENE 00:37:25 17° ENE 00:41:09 10° E visible
06 May 10.0 02:35:07 62° N 02:37:45 70° NE 02:52:02 10° ESE visible
06 May 10.1 04:32:48 16° WNW 04:44:37 45° SW 04:56:39 10° SSE visible
07 May 11.6 00:09:21 - E 00:09:21 - E 23:48:02 10° N visible
07 May 10.2 02:06:59 57° E 02:06:59 57° E 02:18:49 10° ESE visible
07 May 10.0 04:04:37 34° W 04:11:17 51° SW 04:24:08 10° SSE visible
08 May 10.8 01:38:19 33° E 01:38:19 33° E 01:45:25 10° ESE visible
08 May 9.9 03:35:55 55° WSW 03:37:55 58° SW 03:51:30 10° SE visible
09 May 11.4 01:09:16 17° ESE 01:09:16 17° ESE 01:11:50 10° ESE visible
09 May 9.9 03:06:50 60° S 03:06:50 60° S 03:18:43 10° SE visible
09 May 10.7 05:04:24 14° WSW 05:11:56 21° SW 05:21:01 10° S visible
